{"data":{"norad_id":69124,"epoch":"2026-09-19T23:48:52.932384Z","epoch_age_seconds":66970,"freshness":"FRESH","line1":"1 69124U 26110A   26262.99227931  .00019216  00000+0  59585-3 0  9995","line2":"2 69124  97.2851  98.1334 0000808 122.0480 238.0841 15.33455073 20146","mean_motion":15.33455073,"eccentricity":8.08e-5,"inclination_deg":97.2851,"raan_deg":98.1334,"arg_perigee_deg":122.048,"mean_anomaly_deg":238.0841,"bstar":0.00059585,"rev_number":2014,"period_min":93.905587803289,"perigee_km":464.96023754462,"apogee_km":466.06617141767,"semimajor_km":6843.6502044811,"source":"CELESTRAK","updated_at":"2026-09-20T09:00:44.063379Z"}}